Location: Crescent
(42.8242°N, 73.7329°W)
Time: 01:45:33
(UTC+00:00)

Explorer 7 - Pass Details

Date: 25 February 2026
Orbit: 430 x 541 km, 50.2° (Epoch: 13 March)

Event Time Altitude Azimuth Distance (km) Brightness Sun altitude
Rises 23:05:32 0° 296° (WNW) 2,491 11.3 -5.5°
Reaches altitude 10° 23:07:43 10° 290° (WNW) 1,633 10.4 -5.9°
Maximum altitude 23:11:13 42° 218° (SW) 698 7.8 -6.6°
Drops below altitude 10° 23:14:51 10° 147° (SSE) 1,690 9.0 -7.2°
Sets 23:17:09 0° 140° (SE) 2,592 9.9 -7.7°
